[[{"header":{"parameterUnit":"m.s-1","parameterCategory":1,"la1":30.2991,"la2":30.254,"lo1":-89.0895,"lo2":-89.0444,"dy":0.0017,"dx":0.0017,"nx":28,"ny":28,"refTime":"2024-12-11T09:00:00:Z","depth":0,"parameterNumber":2,"parameterNumberName":"U-component_of_WINDS"},"data":[0,0,0,0,0,0,0,0,0,0,0,0,0,0,0,0,0,0,0,0,0,0,0,0,0,0,0,0,0,0,0,0,0,0,0,0,0,0,0,0,0,0,0,0,0,0,0,0,0,0,0,0,0,0,0,0,0,0,-4.9873,-4.9873,0,-4.9903,-4.9903,-4.9903,-4.9708,-4.9703,-4.9697,-4.9692,-4.9725,-4.9731,-4.9737,0,0,0,0,0,0,0,0,0,0,0,0,0,-4.9649,-4.9654,-4.9873,-4.9873,-4.9874,-4.9902,-4.9903,-4.9903,-4.9709,-4.9703,-4.9696,-4.969,-4.9723,-4.973,-4.9737,0,0,0,0,0,0,0,0,0,0,0,0,0,-4.9719,-4.9655,-4.9873,-4.978,-4.9772,-4.9902,-4.9903,-4.9903,-4.9711,-4.9702,-4.9694,-4.9686,-4.9721,-4.9729,-4.9738,-4.996,0,0,-4.9766,-4.977,0,0,0,0,0,0,0,0,-4.9715,-4.9728,-4.9793,-4.9787,-4.9778,-4.9793,-4.9836,-4.9922,-4.9713,-4.9734,-4.9692,-4.9682,-4.9755,-4.976,-4.9784,-4.9961,-4.9962,-4.9767,-4.9772,-4.9776,-4.9779,0,0,0,0,0,0,0,-4.9711,-4.9725,-4.9884,-4.9795,-4.9785,-4.9737,-4.9738,-4.9851,-4.979,-4.9732,-4.9718,-4.9724,-4.9749,-4.9776,-4.9783,-4.9963,-4.9766,-4.9774,-4.978,-4.9783,-5.0321,-5.0329,0,0,0,0,0,0,-4.9718,-4.9722,-4.9883,-4.9885,-4.9726,-4.9748,-4.9749,-4.9797,-4.9789,-4.9779,-4.9731,-4.9714,-4.9764,-4.9773,-4.9784,-5.004,-4.9776,-4.9784,-4.979,-5.0312,-5.0323,-5.0332,0,0,0,0,0,0,-4.9714,-4.9734,-4.9882,-4.98,-4.9815,-4.9761,-4.9816,-4.9802,-4.9828,-4.9788,-4.9776,-4.9769,-4.9758,-4.9771,-4.9917,-5.0039,-4.9788,-4.9797,-5.0302,-5.0315,-5.0328,-5.0557,0,0,0,0,0,0,-4.9708,-4.9734,-4.9817,-4.9803,-4.982,-5.0015,-4.9823,-4.9808,-4.9844,-4.9823,-4.9821,-4.9813,-4.9753,-4.9904,-4.9926,-5.0047,-4.9804,-5.029,-5.0308,-5.0323,-5.0539,-5.0577,-5.061,0,0,0,0,0,-4.9701,-4.9882,-4.9823,-4.9843,-4.9924,-5.0023,-5.0032,-4.9959,-4.9855,-4.9938,-4.9912,-4.9813,-5.0023,-4.9921,-4.9943,-5.0069,-5.0282,-5.0303,-5.0322,-5.0523,-5.0569,-5.0609,0,0,0,0,0,0,-4.9913,-4.9878,-4.9812,-4.9994,-5.0013,-4.9989,-5.0092,-5.0011,-5.006,-5.0039,-4.9946,-4.9947,-5.0108,-5.0103,-4.999,-5.0282,-5.0134,-5.016,-5.0279,-5.0323,-5.0358,-5.0355,-4.9811,0,0,0,0,0,-4.9981,-5.0063,-5.0029,-5.0193,-5.0205,-5.0148,-5.0188,-5.013,-5.0146,-5.0153,-5.0137,-5.0157,-5.0226,-5.0275,-5.0337,-5.0537,-5.0533,-5.0635,-5.067,-5.07,-5.0723,-5.0826,-5.0871,-5.0398,-5.0398,-5.0397,0,0,-5.0121,-5.0113,-5.0171,-5.0235,-5.0242,-5.033,-5.0156,-5.0257,-5.0321,-5.0168,-5.0304,-5.0294,-5.0309,-5.0483,-5.0559,-5.0484,-5.0852,-5.0725,-5.0749,-5.0756,-5.0852,-5.0896,-5.0936,-5.0411,-5.0409,-5.0407,0,0,-5.0422,-5.0425,-5.056,-5.0571,-5.0584,-5.0545,-5.0578,-5.0567,-5.0554,-5.0689,-5.0575,-5.0651,-5.0774,-5.0789,-5.0813,-5.1119,-5.103,-5.1143,-5.1328,-5.143,-5.1467,-5.15,-5.1608,-5.1648,-5.1165,-5.1166,-5.1166,0,-5.0596,-5.0723,-5.0641,-5.0749,-5.078,-5.0645,-5.0781,-5.0796,-5.083,-5.0854,-5.077,-5.092,-5.0921,-5.1095,-5.117,-5.1195,-5.1229,-5.1142,-5.1469,-5.15,-5.153,-5.1631,-5.1672,-5.118,-5.1178,-5.1177,-5.1175,0,-5.0935,-5.1025,-5.1133,-5.1168,-5.1211,-5.1333,-5.1269,-5.1323,-5.1261,-5.123,-5.1369,-5.1366,-5.1424,-5.1461,-5.1402,-5.1628,-5.158,-5.1484,-5.1334,-5.1589,-5.1683,-5.1722,-5.1199,-5.1194,-5.119,-5.1187,0,0,-5.137,-5.1356,-5.1397,-5.1411,-5.1415,-5.1483,-5.1599,-5.1655,-5.1702,-5.1731,-5.1824,-5.1931,-5.1841,-5.1869,-5.181,-5.1901,-5.2142,-5.1793,-5.1792,-5.1856,-5.2388,-5.2459,-5.2506,-5.2083,-5.209,-5.2096,-5.2386,0,-5.1663,-5.1858,-5.1787,-5.1987,-5.2069,-5.1942,-5.2042,-5.2056,-5.2031,-5.2097,-5.2069,-5.2145,-5.2022,-5.2037,-5.2121,-5.2095,-5.2247,-5.2073,-5.2169,-5.2173,-5.2167,-5.2555,-5.2631,-5.2905,-5.2422,-5.2429,-5.2433,0,-5.203,-5.2071,-5.228,-5.2268,-5.23,-5.2392,-5.2436,-5.2501,-5.2514,-5.2489,-5.252,-5.2442,-5.2554,-5.2405,-5.2558,-5.2441,-5.2476,-5.247,-5.2479,-5.2483,-5.2318,-5.2569,-5.2991,-5.3032,-5.249,-5.2486,-5.2482,0,-5.2324,-5.2432,-5.257,-5.2585,-5.2577,-5.2644,-5.2643,-5.2648,-5.2686,-5.2726,-5.2749,-5.2802,-5.2831,-5.2874,-5.2812,-5.271,-5.2974,-5.282,-5.2956,-5.2958,-5.3016,-5.3013,-5.3448,-5.3043,-5.3042,-5.3041,-5.304,0,-5.2657,-5.2789,-5.2701,-5.2787,-5.293,-5.2848,-5.2993,-5.2978,-5.2983,-5.3063,-5.2957,-5.3035,-5.2949,-5.3018,-5.2971,-5.3104,-5.3119,-5.3101,-5.3087,-5.311,-5.3112,-5.313,-5.3109,-5.3052,-5.305,-5.3048,-5.3046,0,-5.3009,-5.2956,-5.3098,-5.3077,-5.3075,-5.3183,-5.3165,-5.3242,-5.321,-5.3312,-5.3331,-5.328,-5.3356,-5.3299,-5.3374,-5.3342,-5.3517,-5.3477,-5.3513,-5.3501,-5.3639,-5.3627,-5.41,-5.4157,-5.3717,-5.3721,-5.3725,0,-5.3224,-5.3323,-5.3313,-5.3358,-5.3364,-5.3439,-5.3476,-5.3399,-5.3443,-5.3464,-5.354,-5.3606,-5.3655,-5.3782,-5.3752,-5.3809,-5.3768,-5.393,-5.3776,-5.3795,-5.3768,-5.3762,-5.3771,-5.3961,-5.3966,-5.3971,-5.3974,0,-5.3611,-5.358,-5.3638,-5.3687,-5.3735,-5.377,-5.3797,-5.3841,-5.3762,-5.3816,-5.3892,-5.393,-5.4006,-5.4074,-5.412,-5.4119,-5.4034,-5.4023,-5.4057,-5.4081,-5.4096,-5.4088,-5.3596,-5.4012,-5.4008,-5.4005,-5.4003,-5.4002,-5.39,-5.398,-5.3986,-5.4054,-5.4066,-5.4093,-5.4164,-5.414,-5.4202,-5.4257,-5.4208,-5.4299,-5.4308,-5.4361,-5.4371,-5.4441,-5.4374,-5.4424,-5.4436,-5.4449,-5.4468,-5.4087,-5.4449,-5.4448,-5.4447,-5.4446,-5.4445,0,-5.4279,-5.4276,-5.434,-5.438,-5.4434,-5.4348,-5.4374,-5.4424,-5.4505,-5.4521,-5.4571,-5.4658,-5.4722,-5.4697,-5.4754,-5.4815,-5.4777,-5.4832,-5.4826,-5.4827,-5.4525,-5.4489,-5.4862,-5.4861,-5.4861,-5.4861,-5.4861,-5.4861,-5.4483,-5.4614,-5.4584,-5.472,-5.4716,-5.4803,-5.4825,-5.4849,-5.4861,-5.4963,-5.5015,-5.4998,-5.4998,-5.5053,-5.5109,-5.51,-5.5125,-5.5194,-5.5171,-5.4889,-5.4848,-5.4809,-5.4774,-5.5201,-5.5201,-5.5466,-5.5468,-5.547]},{"header":{"parameterUnit":"m.s-1","parameterCategory":1,"la1":30.2991,"la2":30.254,"lo1":-89.0895,"lo2":-89.0444,"dy":0.0017,"dx":0.0017,"nx":28,"ny":28,"refTime":"2024-12-11T09:00:00:Z","depth":0,"parameterNumber":3,"parameterNumberName":"V-component_of_WINDS"},"data":[0,0,0,0,0,0,0,0,0,0,0,0,0,0,0,0,0,0,0,0,0,0,0,0,0,0,0,0,0,0,0,0,0,0,0,0,0,0,0,0,0,0,0,0,0,0,0,0,0,0,0,0,0,0,0,0,0,0,-1.3692,-1.3692,0,-1.373,-1.3731,-1.3731,-1.3748,-1.3748,-1.3748,-1.3748,-1.3787,-1.3788,-1.3789,0,0,0,0,0,0,0,0,0,0,0,0,0,-1.363,-1.3631,-1.3692,-1.3692,-1.3693,-1.373,-1.3731,-1.3731,-1.3748,-1.3748,-1.3748,-1.3748,-1.3787,-1.3788,-1.3789,0,0,0,0,0,0,0,0,0,0,0,0,0,-1.3661,-1.3631,-1.3691,-1.3705,-1.3707,-1.373,-1.3731,-1.3732,-1.3748,-1.3748,-1.3748,-1.3748,-1.3786,-1.3788,-1.3789,-1.3801,0,0,-1.3794,-1.3795,0,0,0,0,0,0,0,0,-1.3659,-1.3664,-1.3703,-1.3704,-1.3706,-1.3734,-1.3723,-1.3755,-1.3748,-1.3732,-1.3748,-1.3748,-1.3769,-1.3772,-1.378,-1.3803,-1.3805,-1.3794,-1.3795,-1.3796,-1.3797,0,0,0,0,0,0,0,-1.3657,-1.3662,-1.3707,-1.3703,-1.3705,-1.3709,-1.3713,-1.3729,-1.3751,-1.3734,-1.3735,-1.374,-1.377,-1.3778,-1.3781,-1.3806,-1.3794,-1.3796,-1.3797,-1.3798,-1.3839,-1.384,0,0,0,0,0,0,-1.3653,-1.366,-1.3706,-1.3708,-1.3682,-1.371,-1.3715,-1.3725,-1.3751,-1.3755,-1.374,-1.374,-1.3776,-1.3779,-1.3782,-1.3798,-1.3796,-1.3798,-1.3799,-1.3839,-1.3839,-1.384,0,0,0,0,0,0,-1.3652,-1.3657,-1.3704,-1.3684,-1.3691,-1.3711,-1.3723,-1.3726,-1.3734,-1.3755,-1.3759,-1.3744,-1.3776,-1.378,-1.3796,-1.3799,-1.3798,-1.38,-1.3839,-1.3839,-1.384,-1.3828,0,0,0,0,0,0,-1.365,-1.3656,-1.3662,-1.3684,-1.3692,-1.3718,-1.3723,-1.3727,-1.3737,-1.3738,-1.376,-1.3764,-1.3776,-1.3794,-1.3798,-1.3801,-1.3801,-1.3839,-1.3839,-1.3839,-1.3829,-1.3828,-1.3828,0,0,0,0,0,-1.3647,-1.3657,-1.3662,-1.3667,-1.3699,-1.3718,-1.3722,-1.3736,-1.3737,-1.3742,-1.3756,-1.3763,-1.3798,-1.3795,-1.38,-1.3804,-1.3839,-1.3839,-1.3839,-1.3829,-1.3828,-1.3828,0,0,0,0,0,0,-1.3634,-1.366,-1.3666,-1.3683,-1.3698,-1.3721,-1.3728,-1.3735,-1.375,-1.3751,-1.3767,-1.3772,-1.3786,-1.3797,-1.3793,-1.3817,-1.3819,-1.382,-1.3809,-1.3809,-1.3809,-1.3806,-1.3803,0,0,0,0,0,-1.3633,-1.3647,-1.3669,-1.3682,-1.3689,-1.3707,-1.3716,-1.3725,-1.3742,-1.3748,-1.3763,-1.3777,-1.3792,-1.3801,-1.3815,-1.383,-1.3835,-1.3835,-1.3835,-1.3834,-1.3835,-1.3843,-1.3843,-1.384,-1.384,-1.384,0,0,-1.3632,-1.3648,-1.3655,-1.368,-1.3693,-1.3706,-1.3713,-1.3727,-1.3736,-1.375,-1.3766,-1.3777,-1.3795,-1.381,-1.3818,-1.3819,-1.3837,-1.3835,-1.3834,-1.3835,-1.3843,-1.3843,-1.3843,-1.3841,-1.3841,-1.3841,0,0,-1.3635,-1.3649,-1.3661,-1.3673,-1.3692,-1.3704,-1.3707,-1.3728,-1.3736,-1.3752,-1.3762,-1.3774,-1.3799,-1.3811,-1.382,-1.3826,-1.3833,-1.383,-1.3828,-1.3836,-1.3836,-1.3836,-1.3838,-1.3838,-1.3831,-1.3831,-1.3831,0,-1.3631,-1.3652,-1.3666,-1.3679,-1.3689,-1.3702,-1.3714,-1.3725,-1.3748,-1.3754,-1.3756,-1.3786,-1.3799,-1.3817,-1.3818,-1.3825,-1.3829,-1.3828,-1.3835,-1.3835,-1.3836,-1.3837,-1.3838,-1.3831,-1.3831,-1.3831,-1.3831,0,-1.3644,-1.3659,-1.3666,-1.3687,-1.3698,-1.3711,-1.3726,-1.3735,-1.3743,-1.3754,-1.377,-1.3786,-1.3804,-1.3808,-1.3816,-1.3827,-1.3827,-1.3832,-1.3834,-1.3835,-1.3837,-1.3838,-1.383,-1.383,-1.383,-1.383,0,0,-1.3642,-1.367,-1.3673,-1.3682,-1.3703,-1.3714,-1.3727,-1.3744,-1.3751,-1.3766,-1.3776,-1.3796,-1.38,-1.381,-1.3819,-1.3826,-1.3829,-1.3829,-1.383,-1.3828,-1.3841,-1.3837,-1.3838,-1.3834,-1.3834,-1.3834,-1.3839,0,-1.3648,-1.3671,-1.3684,-1.3702,-1.3714,-1.3726,-1.3737,-1.375,-1.3761,-1.3773,-1.3784,-1.3798,-1.3802,-1.3808,-1.3815,-1.3827,-1.3832,-1.3827,-1.3843,-1.3843,-1.3838,-1.3839,-1.3836,-1.384,-1.384,-1.384,-1.384,0,-1.3659,-1.3673,-1.3692,-1.3711,-1.3717,-1.3726,-1.3742,-1.3753,-1.3769,-1.3776,-1.3787,-1.3796,-1.3809,-1.381,-1.3828,-1.3824,-1.3831,-1.3838,-1.3838,-1.3841,-1.3842,-1.3841,-1.3842,-1.3842,-1.3842,-1.3842,-1.3842,0,-1.3654,-1.3678,-1.3692,-1.37,-1.3722,-1.3729,-1.3738,-1.3754,-1.3763,-1.3776,-1.3782,-1.3797,-1.3805,-1.3816,-1.3829,-1.3829,-1.3845,-1.3848,-1.3851,-1.385,-1.3854,-1.3853,-1.3855,-1.3858,-1.3858,-1.3858,-1.3858,0,-1.366,-1.367,-1.369,-1.3699,-1.3711,-1.3725,-1.3737,-1.3747,-1.3761,-1.3771,-1.3782,-1.3791,-1.3807,-1.3819,-1.3828,-1.3841,-1.3845,-1.385,-1.3853,-1.3849,-1.3849,-1.3854,-1.3854,-1.3859,-1.3859,-1.3859,-1.3858,0,-1.3657,-1.367,-1.3687,-1.3706,-1.3711,-1.3719,-1.3736,-1.3744,-1.3755,-1.3768,-1.3772,-1.3788,-1.3802,-1.3815,-1.3834,-1.384,-1.3853,-1.3856,-1.3847,-1.3849,-1.3851,-1.385,-1.3857,-1.3858,-1.386,-1.386,-1.386,0,-1.3659,-1.3668,-1.3688,-1.3696,-1.3705,-1.3718,-1.3727,-1.374,-1.3749,-1.3767,-1.3773,-1.3787,-1.38,-1.3821,-1.3834,-1.3848,-1.3852,-1.3853,-1.3854,-1.385,-1.3852,-1.3851,-1.3852,-1.3853,-1.3853,-1.3853,-1.3853,0,-1.3662,-1.3668,-1.3681,-1.3696,-1.3706,-1.3719,-1.3731,-1.3737,-1.3753,-1.3762,-1.3776,-1.3786,-1.3804,-1.3818,-1.3834,-1.3843,-1.385,-1.3852,-1.3854,-1.385,-1.3845,-1.3847,-1.3846,-1.3852,-1.3852,-1.3852,-1.3852,-1.3852,-1.3662,-1.367,-1.3685,-1.3699,-1.3709,-1.3721,-1.3729,-1.3741,-1.3753,-1.3769,-1.3776,-1.379,-1.3804,-1.3826,-1.3835,-1.3846,-1.3847,-1.385,-1.385,-1.385,-1.3849,-1.3843,-1.3848,-1.3848,-1.3848,-1.3848,-1.3849,0,-1.3665,-1.3675,-1.3688,-1.3705,-1.3715,-1.3721,-1.3735,-1.3743,-1.3755,-1.3768,-1.378,-1.3795,-1.3809,-1.3823,-1.3837,-1.3843,-1.3846,-1.3846,-1.3846,-1.3847,-1.3847,-1.3844,-1.3843,-1.3843,-1.3843,-1.3843,-1.3843,-1.3843,-1.3668,-1.3681,-1.3689,-1.3707,-1.3717,-1.3731,-1.3739,-1.3749,-1.3759,-1.3776,-1.3787,-1.3796,-1.3809,-1.3824,-1.3836,-1.384,-1.3844,-1.3843,-1.3848,-1.3847,-1.3848,-1.3848,-1.3845,-1.3844,-1.3844,-1.3847,-1.3847,-1.3847]}]]